TIME,�g��[���C[MJ/h],����[MJ/h],�Ɩ�[MJ/h],�~�[[MJ/h],�①��[MJ/h],��y���[MJ/h],�Ǝ��q��[MJ/h],���̑�[MJ/h],�����G�l���M�[[MJ/h]
2002/12/1 0:00,0.7309,0,1.0634,0,0.589,1.2564,0.3308,-0.1385,0
2002/12/1 0:15,0.5832,0,1.5085,0,0.3351,1.0688,0.235,0.0549,0
2002/12/1 0:30,0.5806,0,1.4257,0,0.573,1.1058,0.1634,0.0376,0
2002/12/1 0:45,0.2961,0,0.6715,0,0.377,0.7878,0.3243,0.2402,0
2002/12/1 1:00,0.005,0,0.1963,0,0.5033,0.2087,0.1627,0.5221,0
2002/12/1 1:15,0.0052,0,0.0971,0,0.6742,0.1632,0.2363,0.5262,0
2002/12/1 1:30,0.0052,0,0.0395,0,0.147,0.163,0.2508,0.5478,0
2002/12/1 1:45,0.005,0,0,0,0.5928,0.162,0.234,0.5698,0
2002/12/1 2:00,0.0052,0,0.0003,0,0.5432,0.1632,0.2497,0.5665,0
2002/12/1 2:15,0.005,0,0,0,0.3894,0.1632,0.2362,0.5848,0
2002/12/1 2:30,0.0052,0,0,0,0.5352,0.1626,0.3246,0.5472,0
2002/12/1 2:45,0.0052,0,0,0,0.3195,0.1617,0.1656,0.5724,0
2002/12/1 3:00,0.005,0,0,0,0.6299,0.1613,0.24,0.5628,0
2002/12/1 3:15,0.005,0,0.0003,0,0.7292,0.1608,0.2507,0.5655,0
2002/12/1 3:30,0.005,0,0.0003,0,0.7855,0.1608,0.2383,0.56,0
2002/12/1 3:45,0.005,0,0.0003,0,0.8772,0.1611,0.2533,0.5721,0
2002/12/1 4:00,0.005,0,0,0,0.4836,0.1611,0.2334,0.5502,0
2002/12/1 4:15,0.005,0,0,0,0.6238,0.1608,0.1666,0.5603,0
2002/12/1 4:30,0.005,0,0,0,0.6016,0.1607,0.326,0.5718,0
2002/12/1 4:45,0.0052,0,0,0,0.1786,0.1613,0.1676,0.5715,0
2002/12/1 5:00,0.005,0,0,0,0.6831,0.161,0.3243,0.5653,0
2002/12/1 5:15,0.005,0,0.0003,0,0.3617,0.1617,0.1679,0.5567,0
2002/12/1 5:30,0.0052,0,0.0003,0,0.5452,0.161,0.2431,0.5704,0
2002/12/1 5:45,0.005,0,0,0,0.3639,0.1606,0.2553,0.5558,0
2002/12/1 6:00,0.005,0,0,0,0.3326,0.1603,0.2367,0.5465,0
2002/12/1 6:15,0.0049,0,0.0004,0,0.7246,0.16,0.2532,0.5521,0
2002/12/1 6:30,0.0052,0,0.0009,0,0.3031,0.1613,0.2426,0.5551,0
2002/12/1 6:45,0.005,0,0.0442,0,0.3846,0.1742,0.1688,1.0296,0
2002/12/1 7:00,0.0049,0,0.6548,0,0.4812,0.5809,0.3254,0.7232,0
2002/12/1 7:15,0.0049,0,0.6124,0,0.4188,0.5607,0.1668,0.6915,0
2002/12/1 7:30,0.0049,0,0.7423,0,0.6576,0.5237,0.372,1.4759,0
2002/12/1 7:45,0.005,0,0.7412,0,0.2936,0.5679,0.2228,1.0804,0
2002/12/1 8:00,0.005,0,0.5832,0,0.4542,0.6067,0.3181,0.8941,0
2002/12/1 8:15,0.005,0,0.665,0.5969,0.3637,0.5975,0.1555,0.877,0
2002/12/1 8:30,1.9159,0,0.5625,0,0.4579,2.5952,0.3125,-1.0692,0
2002/12/1 8:45,1.1572,0,0.5587,0,0.7181,1.7983,0.2304,-0.3509,0
2002/12/1 9:00,1.0174,0,0.5567,0,0.2877,1.64,0.2426,-0.1053,0
2002/12/1 9:15,0.8685,0,0.5527,0,0.4056,1.6318,0.2271,0.0318,0
2002/12/1 9:30,0.8575,0,0.5498,0.6333,0.5463,1.6212,0.1542,-0.0913,0
2002/12/1 9:45,0.8679,0,0.5835,0,0.3914,1.639,0.3118,-0.1698,0
2002/12/1 10:00,0.8231,0,0.5489,0,0.6795,1.5987,0.1545,-0.0772,0
2002/12/1 10:15,0.7705,0,1.0734,0,0.2127,1.542,0.3086,0.0068,0
2002/12/1 10:30,0.7861,0,0.671,0,0.4401,1.4044,0.3436,0.0261,0
2002/12/1 10:45,0.8014,0,0.5458,0,0.6343,1.2771,0.2251,-0.1424,0
2002/12/1 11:00,0.7851,0,0.0059,0,0.3203,0.9647,0.2703,-0.1734,0
2002/12/1 11:15,0.7384,0,0,0,0.6218,0.9098,0.2305,-0.1411,0
2002/12/1 11:30,0.6424,0,0,0,0.286,0.8378,0.3141,-0.0675,0
2002/12/1 11:45,0.7554,0,0,0,0.5155,0.9399,0.2294,-0.2108,0
2002/12/1 12:00,0.599,0,0,0,0.6349,0.8724,0.2447,0.4252,0
2002/12/1 12:15,0.7479,0,0,0,0.2899,1.1186,0.232,-0.0585,0
2002/12/1 12:30,0.5979,0,0,0,0.6072,0.9264,0.2428,0.166,0
2002/12/1 12:45,0.7438,0,0.0634,0,0.2506,1.2979,0.2235,-0.0373,0
2002/12/1 13:00,0.7723,0,0.4212,0,0.4077,1.3568,0.1551,-0.0229,0
2002/12/1 13:15,0.6188,0,0.4166,0,0.7332,1.2102,0.3046,0.0828,0
2002/12/1 13:30,0.7623,0,0.4527,0,0.3279,1.3774,0.2242,-0.0088,0
2002/12/1 13:45,0.6454,0,0.4081,0,0.5632,1.3804,0.2448,0.3128,0
2002/12/1 14:00,0.7073,0,0.6083,0,0.3547,1.5175,0.229,-0.0204,0
2002/12/1 14:15,0.6782,0,0.8184,0,0.3728,1.4718,0.2559,0.0024,0
2002/12/1 14:30,0.6487,0,0.808,0,0.7675,1.4249,0.2225,0.0469,0
2002/12/1 14:45,0.6228,0,0.8152,0,0.4935,1.6245,0.246,0.092,0
2002/12/1 15:00,0.6934,0,0.8323,0,0.6944,1.8336,0.2218,0.176,0
2002/12/1 15:15,0.5894,0,0.9704,0,1.1274,1.7957,0.1536,0.7068,0
2002/12/1 15:30,0.7027,0,0.814,0,0.4758,1.9316,0.3161,0.2416,0
2002/12/1 15:45,0.5966,0,1.0692,0,0.7186,1.8367,0.1534,0.3083,0
2002/12/1 16:00,0.5718,0,1.1003,0,0.653,1.5568,0.3319,0.4172,0
2002/12/1 16:15,0.6497,0,0.9014,0,0.4091,1.4436,0.1524,0.3073,0
2002/12/1 16:30,0.6317,0,1.4543,0,0.5489,1.2879,0.3067,0.2902,0
2002/12/1 16:45,0.5679,0,1.7431,0,0.4707,1.1292,0.1512,0.0121,0
2002/12/1 17:00,0.5668,0,2.0385,0,0.4656,1.1321,0.3126,0.492,0
2002/12/1 17:15,0.7269,0,1.9777,0,0.6961,1.2787,0.1522,-0.055,0
2002/12/1 17:30,0.581,0,1.9948,0,0.1706,1.157,0.2239,0.1045,0
2002/12/1 17:45,0.5989,0,2.048,0,0.5941,1.2047,0.235,0.0786,0
2002/12/1 18:00,0.6864,0,2.1639,0,0.6306,1.2927,0.2272,0.0901,0
2002/12/1 18:15,0.5731,0,1.3765,0,0.2877,1.3262,0.2344,0.3793,0
2002/12/1 18:30,0.5684,0,0.6768,0,0.4844,1.2936,0.2203,0.5825,0
2002/12/1 18:45,0.5707,0,0.6941,0,0.5747,1.3107,0.2398,0.6782,0
2002/12/1 19:00,0.6947,0,0.6719,0,0.3551,1.3836,0.2177,0.4474,0
2002/12/1 19:15,0.6016,0,0.6512,0,0.65,1.1331,0.1495,0.381,0
2002/12/1 19:30,0.5746,0,0.6293,0,0.3349,1.1452,0.3367,0.3299,0
2002/12/1 19:45,0.5751,0,0.6276,0,0.4402,1.1367,0.1499,0.3995,0
2002/12/1 20:00,0.5908,0,0.6241,0,0.7043,1.1271,0.3145,0.2651,0
2002/12/1 20:15,0.6823,0,0.6244,0,0.3541,1.1946,0.1509,0.139,0
2002/12/1 20:30,0.6042,0,0.6251,0,0.3898,1.1117,0.3084,0.2566,0
2002/12/1 20:45,0.5773,0,0.7849,0,0.7114,1.129,0.1496,0.2213,0
2002/12/1 21:00,0.5805,0,1.3149,0,0.3437,1.0973,0.2166,0.1907,0
2002/12/1 21:15,0.5772,0,1.0547,0,0.4409,1.0911,0.7701,0.2177,0
2002/12/1 21:30,0.5777,0,0.6546,0,0.5612,1.1219,0.8244,0.2167,0
2002/12/1 21:45,0.577,0,0.559,0,0.3367,1.1657,0.3684,0.2212,0
2002/12/1 22:00,0.5672,0,0.5435,0,0.6591,1.1352,0.2212,0.2465,0
2002/12/1 22:15,0.5651,0,0.5424,0,0.3529,1.1167,0.1539,0.2399,0
2002/12/1 22:30,0.5651,0,0.7116,0,0.3702,1.1556,0.3181,0.2208,0
2002/12/1 22:45,0.5697,0,1.2027,0,0.722,1.129,0.1549,0.2019,0
2002/12/1 23:00,0.5697,0,0.5522,0,0.3732,1.0701,0.2252,0.3217,0
2002/12/1 23:15,0.5865,0,0.5465,0,0.3537,1.1336,0.2379,0.2651,0
2002/12/1 23:30,0.6414,0,0.5469,0,0.6457,1.2201,0.2223,0.2432,0
2002/12/1 23:45,0.6434,0,0.546,0,0.3328,1.2175,0.2389,0.0624,0
2002/12/2 0:00,0.578,0,1.165,0,0.5792,0.8012,0.2314,0.0009,0
2002/12/2 0:15,0.5764,0,0.5901,0,0.3365,0.9056,0.2199,-0.0297,0
2002/12/2 0:30,0.4323,0,0.1044,0,0.4454,0.8215,0.3141,0.1447,0
2002/12/2 0:45,0.005,0,0.0973,0,0.7044,0.1633,0.1557,0.5485,0
2002/12/2 1:00,0.005,0,0.0973,0,0.2097,0.1634,0.3131,0.5312,0
2002/12/2 1:15,0.0052,0,0.005,0,0.4751,0.1649,0.1577,0.5838,0
2002/12/2 1:30,0.0052,0,0.0012,0,0.5476,0.166,0.2288,0.5937,0
2002/12/2 1:45,0.005,0,0.0012,0,0.4242,0.1642,0.2415,0.6048,0
2002/12/2 2:00,0.005,0,0.0019,0,0.7531,0.1617,0.2254,0.5803,0
2002/12/2 2:15,0.0049,0,0.0022,0,0.4189,0.1617,0.3174,0.5609,0
2002/12/2 2:30,0.0052,0,0.0058,0,1.0246,0.1655,0.1593,0.5793,0
2002/12/2 2:45,0.005,0,0.0035,0,0.7825,0.1656,0.2313,0.6016,0
2002/12/2 3:00,0.0052,0,0.0053,0,0.5077,0.1655,0.2464,0.5812,0
2002/12/2 3:15,0.0052,0,0.0131,0,0.7799,0.1655,0.2262,0.5682,0
2002/12/2 3:30,0.0052,0,0.0069,0,0.3234,0.1665,0.2441,0.5926,0
2002/12/2 3:45,0.005,0,0.0094,0,0.4175,0.165,0.2287,0.5926,0
2002/12/2 4:00,0.005,0,0.0108,0,0.4732,0.1646,0.1597,0.5589,0
2002/12/2 4:15,0.005,0,0.0107,0,0.416,0.1653,0.3129,0.5816,0
2002/12/2 4:30,0.005,0,0.0156,0,0.6216,0.1643,0.2252,0.5757,0
2002/12/2 4:45,0.0049,0,0.0095,0,0.2966,0.1643,0.2422,0.5675,0
2002/12/2 5:00,0.005,0,0.0153,0,0.4529,0.1624,0.2281,0.5643,0
2002/12/2 5:15,0.005,0,0.0114,0,0.2971,0.1639,0.2449,0.5678,0
2002/12/2 5:30,0.005,0,0.0192,0,0.5256,0.1656,0.2357,0.5802,0
2002/12/2 5:45,0.0052,0,0.0245,0,0.5779,0.1646,0.1613,0.5653,0
2002/12/2 6:00,0.0049,0,0.538,0,0.3398,0.4706,0.3185,1.1866,0
2002/12/2 6:15,0.0049,0,0.7366,0.5338,0.5766,0.5273,0.3858,1.7572,0
2002/12/2 6:30,0.005,0,0.2595,0,0.1944,0.3483,0.2314,0.814,0
2002/12/2 6:45,0.005,0,0.0029,0,0.6108,0.1629,0.3342,0.7108,0
2002/12/2 7:00,0.0052,0,0,0,0.5115,0.1999,0.1611,0.6633,0
2002/12/2 7:15,0.005,0,0,0,0.4261,0.1619,0.3195,0.6751,0
2002/12/2 7:30,0.0052,0,0,0,0.5823,0.1643,0.2382,0.6882,0
2002/12/2 7:45,0.0052,0,0,0,0.1115,0.1657,0.2506,0.6843,0
2002/12/2 8:00,0.0052,0,0.018,0,0.6725,0.1653,0.236,0.6692,0
2002/12/2 8:15,0.0052,0,0.0649,0.5517,0.4382,0.2995,0.2521,0.6448,0
2002/12/2 8:30,0.005,0,0.7237,0,0.4818,0.561,0.2388,0.5014,0
2002/12/2 8:45,0.0052,0,0.0917,0,0.4549,0.5391,0.5283,0.5291,0
2002/12/2 9:00,0.005,0,0.0635,0,0.149,0.2785,0.3295,0.5134,0
2002/12/2 9:15,0.0052,0,0.0629,0,0.7294,0.1626,0.2305,0.5236,0
2002/12/2 9:30,0.005,0,0.0626,0,0.3815,0.1624,0.318,0.509,0
2002/12/2 9:45,0.005,0,0.0626,0,0.563,0.1608,0.2277,0.5223,0
2002/12/2 10:00,0.0052,0,0.0635,0,0.5437,0.163,0.2483,0.5149,0
2002/12/2 10:15,0.0053,0,0.0644,0,0.1669,0.1634,0.2252,0.4964,0
2002/12/2 10:30,0.0052,0,0.0639,0,0.6267,0.1626,0.2281,0.5124,0
2002/12/2 10:45,0.0052,0,0.0652,0,0.3888,0.164,0.2488,0.5206,0
2002/12/2 11:00,0.0052,0,0.0647,0,0.5409,0.1633,0.2269,0.5171,0
2002/12/2 11:15,0.0053,0,0.0652,0,0.5579,0.1629,0.2487,0.5191,0
2002/12/2 11:30,0.0052,0,0.0634,0,0.2183,0.1608,0.2212,0.5138,0
2002/12/2 11:45,0.005,0,0.0624,0,0.4912,0.1594,0.2241,0.5001,0
2002/12/2 12:00,0.0052,0,0.0635,0,0.4307,0.1914,0.2467,0.5315,0
2002/12/2 12:15,0.0052,0,0.0638,0,0.5073,0.1636,0.2212,0.5111,0
2002/12/2 12:30,0.0052,0,0.0626,0,0.5868,0.1623,0.2428,0.5125,0
2002/12/2 12:45,0.005,0,0.0626,0,0.1961,0.1617,0.2275,0.5211,0
2002/12/2 13:00,0.005,0,0.0622,0,0.6283,0.1608,0.1567,0.4913,0
2002/12/2 13:15,0.005,0,0.0626,0,0.5535,0.1611,0.3093,0.5217,0
2002/12/2 13:30,0.0052,0,0.0629,0,0.1673,0.1617,0.2284,0.4991,0
2002/12/2 13:45,0.0052,0,0.0626,0,0.7144,0.1614,0.2428,0.5053,0
2002/12/2 14:00,0.0052,0,0.0628,0,0.4886,0.1623,0.2153,0.4984,0
2002/12/2 14:15,0.005,0,0.0624,0,0.7848,0.1617,0.1551,0.5028,0
2002/12/2 14:30,0.0052,0,0.3977,0,1.0642,0.1603,0.3187,2.0474,0
2002/12/2 14:45,0.0052,0,1.0678,0,0.4136,0.1617,0.221,0.5423,0
2002/12/2 15:00,0.005,0,0.0625,0.001,0.7324,0.1613,0.3162,0.5237,0
2002/12/2 15:15,0.0052,0,0.0624,0.0072,0.5751,0.1613,0.1561,0.5301,0
2002/12/2 15:30,0.0052,0,0.0626,0.0073,0.3768,0.1617,0.3012,0.507,0
2002/12/2 15:45,0.005,0,0.1008,0.0073,0.5845,0.1608,0.2422,0.5139,0
2002/12/2 16:00,0.005,0,0.2161,0.0072,0.3465,0.1606,0.2242,0.4949,0
2002/12/2 16:15,0.005,0,0.4097,0.0072,0.5652,0.1606,0.3034,0.5908,0
2002/12/2 16:30,0.0052,0,0.8968,0.0072,0.4978,0.1621,0.1577,0.6648,0
2002/12/2 16:45,0.7507,0,0.768,0.0073,0.2281,1.0292,0.2226,-0.2177,0
2002/12/2 17:00,1.5391,0,0.7203,1.0064,0.7212,2.1398,0.2425,-1.0652,0
2002/12/2 17:15,1.0693,0,0.6981,0.9845,0.3483,1.6635,0.2215,-0.6513,0
2002/12/2 17:30,0.9258,0,0.6912,0.1974,0.413,1.4895,0.3252,-0.3684,0
2002/12/2 17:45,0.8267,0,0.6908,0.0327,0.4609,1.3939,0.1577,-0.3136,0
2002/12/2 18:00,0.7996,0,0.6922,0.0259,0.358,1.3404,0.3131,-0.2586,0
2002/12/2 18:15,0.7223,0,0.7881,0.0261,0.6938,1.0889,0.1604,-0.1619,0
2002/12/2 18:30,0.681,0,0.8876,0.0301,0.2399,0.9274,0.3208,0.7289,0
2002/12/2 18:45,0.7638,0,0.7547,0,0.5044,1.0168,0.1593,0.194,0
2002/12/2 19:00,0.6068,0,0.6852,0,0.5895,1.1843,0.3324,0.2557,0
2002/12/2 19:15,0.7606,0,0.8739,0,0.3436,1.4859,0.2248,0.7307,0
2002/12/2 19:30,0.6614,0,0.8631,0,0.5005,1.4052,0.2524,0.4899,0
2002/12/2 19:45,0.6885,0,0.9272,0,0.3804,1.3471,0.2274,0.3082,0
2002/12/2 20:00,0.5953,0,0.852,0,0.576,1.1462,0.288,0.2759,0
2002/12/2 20:15,0.6706,0,0.7667,0,0.5787,1.2007,0.2245,0.2197,0
2002/12/2 20:30,0.6241,0,0.7608,0,0.1115,1.167,0.2573,0.2825,0
2002/12/2 20:45,0.5227,0,0.7608,0,0.6935,1.0692,0.2252,0.3676,0
2002/12/2 21:00,0.4903,0,0.758,0,0.4414,1.0639,0.3174,0.3835,0
2002/12/2 21:15,0.5707,0,0.7573,0,0.4023,1.0901,0.1584,0.379,0
2002/12/2 21:30,0.6117,0,0.7815,0,0.5174,1.1546,0.3129,0.2904,0
2002/12/2 21:45,0.6041,0,0.7747,0,0.3149,1.1281,0.157,0.3077,0
2002/12/2 22:00,0.5365,0,0.7972,0,0.6529,1.0672,0.3133,0.4208,0
2002/12/2 22:15,0.5115,0,0.7004,0,0.4666,1.0538,0.1549,0.4002,0
2002/12/2 22:30,0.5162,0,0.5416,0,0.2317,1.0716,0.2347,0.4428,0
2002/12/2 22:45,0.5548,0,1.1254,0,0.6939,1.1098,0.3142,0.3732,0
2002/12/2 23:00,0.5521,0,0.6713,0,0.222,1.104,0.2252,0.375,0
2002/12/2 23:15,0.5527,0,0.6636,0,0.5283,0.9665,0.2696,0.2889,0
2002/12/2 23:30,0.5528,0,1.0001,0,0.6486,0.7235,0.2232,0.1892,0
2002/12/2 23:45,0.5534,0,1.2408,0,0.2269,0.7332,0.2452,0.1303,0
2002/12/3 0:00,0.4162,0,0.0968,0,0.5423,0.8493,0.2241,0.1224,0
2002/12/3 0:15,0.005,0,0.0996,0,0.5089,0.236,0.2439,0.5445,0
2002/12/3 0:30,0.0052,0,0.096,0,0.4311,0.1636,0.2316,0.5469,0
2002/12/3 0:45,0.005,0,0.037,0,0.5583,0.1632,0.1565,0.593,0
2002/12/3 1:00,0.0052,0,0,0,0.2339,0.1643,0.3203,0.5973,0
2002/12/3 1:15,0.0052,0,0,0,0.668,0.1636,0.2209,0.5871,0
2002/12/3 1:30,0.0052,0,0,0,0.554,0.1637,0.2441,0.5825,0
2002/12/3 1:45,0.005,0,0,0,0.557,0.164,0.2314,0.5862,0
2002/12/3 2:00,0.0052,0,0,0,1.1222,0.1616,0.1577,0.5946,0
2002/12/3 2:15,0.005,0,0,0,0.5219,0.1619,0.3103,0.5815,0
2002/12/3 2:30,0.005,0,0,0,0.7482,0.1624,0.1588,0.598,0
2002/12/3 2:45,0.005,0,0,0,0.5234,0.161,0.3146,0.6097,0
2002/12/3 3:00,0.005,0,0,0,0.3869,0.1604,0.2313,0.5979,0
2002/12/3 3:15,0.005,0,0.0006,0,0.4896,0.1603,0.2445,0.5766,0
2002/12/3 3:30,0.0049,0,0,0,0.3051,0.161,0.23,0.6011,0
2002/12/3 3:45,0.005,0,0.0009,0,0.6843,0.1608,0.1613,0.575,0
2002/12/3 4:00,0.005,0,0.0006,0,0.337,0.1616,0.3155,0.5803,0
2002/12/3 4:15,0.0052,0,0.0017,0,0.4981,0.162,0.161,0.6123,0
2002/12/3 4:30,0.005,0,0.0032,0,0.2896,0.1613,0.3161,0.6136,0
2002/12/3 4:45,0.005,0,0.0043,0,0.3627,0.1607,0.1616,0.5692,0
2002/12/3 5:00,0.0049,0,0.006,0,0.6605,0.1601,0.3152,0.5849,0
2002/12/3 5:15,0.005,0,0.0099,0,0.321,0.1604,0.2364,0.5744,0
2002/12/3 5:30,0.005,0,0.0148,0,0.6477,0.1621,0.1632,0.5743,0
2002/12/3 5:45,0.005,0,0.0166,0,0.1686,0.1623,0.3231,0.5803,0
2002/12/3 6:00,0.005,0,0.5007,0,0.4971,0.429,0.1611,1.1176,0
2002/12/3 6:15,0.0048,0,0.8839,0.5308,0.5355,0.5327,0.4336,1.7247,0
2002/12/3 6:30,0.005,0,0.3701,0,0.4136,0.4111,0.2652,0.8639,0
2002/12/3 6:45,0.005,0,0,0,0.6551,0.1616,0.2343,0.6853,0
2002/12/3 7:00,0.005,0,0,0,0.3835,0.1996,0.3198,0.7014,0
2002/12/3 7:15,0.005,0,0,0,0.4882,0.1613,0.163,0.6729,0
2002/12/3 7:30,0.005,0,0,0,0.2886,0.163,0.3267,0.737,0
2002/12/3 7:45,0.0052,0,0,0,0.5568,0.1633,0.2373,0.689,0
2002/12/3 8:00,0.0052,0,0.0719,0,0.5242,0.164,0.4611,0.6781,0
2002/12/3 8:15,0.0052,0,0.1017,0.3832,0.3685,0.4092,0.6686,0.5652,0
2002/12/3 8:30,0.005,0,0.1133,0,0.4359,0.5432,0.6523,0.4736,0
2002/12/3 8:45,0.005,0,0.1025,0,0.3001,0.5468,0.338,0.4506,0
2002/12/3 9:00,0.005,0,0.0991,0,0.6893,0.2186,0.6883,0.4656,0
2002/12/3 9:15,0.0052,0,0.0413,0,0.3862,0.1617,0.6358,0.4513,0
2002/12/3 9:30,0.0052,0,0.0716,0,0.42,0.1606,0.2478,0.5293,0
2002/12/3 9:45,0.005,0,0.0091,0,0.3671,0.1613,0.3326,0.5102,0
2002/12/3 10:00,0.0052,0,0.0023,0,0.4202,0.1623,0.2366,0.7739,0
2002/12/3 10:15,0.0052,0,1.1274,0,0.6627,0.1601,0.2494,2.087,0
2002/12/3 10:30,0.0052,0,0.2432,0,0.2873,0.1616,0.2334,0.4952,0
2002/12/3 10:45,0.0052,0,0.0006,0,0.4491,0.158,0.257,0.5046,0
2002/12/3 11:00,0.0052,0,0.0003,0,0.3123,0.1585,0.2206,0.5005,0
2002/12/3 11:15,0.005,0,0,0,0.5391,0.1581,0.3207,0.4833,0
2002/12/3 11:30,0.0052,0,0,0,0.5292,0.158,0.1608,0.4827,0
2002/12/3 11:45,0.0052,0,0,0,0.2426,0.1574,0.3096,0.4812,0
2002/12/3 12:00,0.0052,0,0.1094,0,0.5306,0.1876,0.2244,0.485,0
2002/12/3 12:15,0.0052,0,0.2745,0,0.3432,0.1621,0.2442,0.4607,0
2002/12/3 12:30,0.005,0,0,0,0.63,0.1616,0.3076,0.4635,0
2002/12/3 12:45,0.0052,0,0,0,0.4641,0.1606,0.1601,0.4647,0
2002/12/3 13:00,0.005,0,0,0,0.5136,0.1608,0.3162,0.4687,0
2002/12/3 13:15,0.005,0,0,0,0.8614,0.161,0.1596,0.4635,0
2002/12/3 13:30,0.0052,0,0,0,0.7704,0.1601,0.3128,0.4602,0
2002/12/3 13:45,0.005,0,0,0,0.8048,0.1604,0.2236,0.4681,0
2002/12/3 14:00,0.0052,0,0,0,0.5177,0.1604,0.248,0.4883,0
2002/12/3 14:15,0.0052,0,0,0,0.6032,0.161,0.2294,0.452,0
2002/12/3 14:30,0.005,0,0,0,0.5685,0.1611,0.1568,0.4831,0
2002/12/3 14:45,0.0052,0,0,0,0.1824,0.1611,0.3154,0.4828,0
2002/12/3 15:00,0.0052,0,0,0,0.6741,0.1613,0.2206,0.4648,0
2002/12/3 15:15,0.005,0,0,0,0.409,0.1611,0.2475,0.4732,0
2002/12/3 15:30,0.0052,0,0,0,0.4605,0.1601,0.2305,0.4514,0
2002/12/3 15:45,0.005,0,0,0,0.4064,0.1578,0.1567,0.4696,0
2002/12/3 16:00,0.005,0,0,0,0.3074,0.1594,0.3152,0.4902,0
2002/12/3 16:15,0.005,0,0,0,0.715,0.16,0.1567,0.4768,0
2002/12/3 16:30,0.005,0,0.0032,0,0.3744,0.1588,0.3169,0.4812,0
2002/12/3 16:45,0.0052,0,0.0999,0,0.3472,0.1613,0.1621,0.537,0
2002/12/3 17:00,0.0052,0,0.869,0.2929,0.5769,0.163,0.3028,0.4903,0
2002/12/3 17:15,0.005,0,0.7936,1.1006,0.354,0.1623,0.2451,0.5003,0
2002/12/3 17:30,0.005,0,0.7731,0.6071,0.7016,0.162,0.2219,0.5331,0
2002/12/3 17:45,0.0052,0,0.7998,0.1866,0.147,0.1616,0.321,0.4946,0
2002/12/3 18:00,0.005,0,0.7589,0.0258,0.5416,0.1614,0.1594,0.4792,0
2002/12/3 18:15,0.0052,0,0.7579,0.0259,0.3424,0.1616,0.2252,0.4977,0
2002/12/3 18:30,0.005,0,0.7988,0.246,0.3835,0.1752,0.2494,0.5484,0
2002/12/3 18:45,0.005,0,0.7543,0.0527,0.7016,0.5207,0.2303,0.6949,0
2002/12/3 19:00,1.8694,0,0.83,0.0792,0.3259,2.4912,0.1594,-1.11,0
2002/12/3 19:15,1.2295,0,0.8677,0,0.5283,1.7904,0.3156,-0.4657,0
2002/12/3 19:30,0.9027,0,0.7563,0,0.3056,1.471,0.2343,-0.211,0
2002/12/3 19:45,0.9507,0,0.7553,0,0.4683,1.5196,0.2487,-0.2749,0
2002/12/3 20:00,0.849,0,0.7536,0,0.6474,1.4171,0.231,-0.1136,0
2002/12/3 20:15,0.7618,0,0.753,0,0.2897,1.3156,0.1603,-0.112,0
2002/12/3 20:30,0.7095,0,0.7501,0,0.5966,1.2217,0.3115,-0.0549,0
2002/12/3 20:45,0.7674,0,0.7523,0,0.2088,1.3222,0.1619,-0.0521,0
2002/12/3 21:00,0.7592,0,0.7559,0,0.4427,1.3285,0.3218,0.0102,0
2002/12/3 21:15,0.6702,0,0.752,0,0.6156,1.293,0.1611,0.0135,0
2002/12/3 21:30,0.6952,0,0.7536,0,0.3339,1.3529,0.3216,0.0262,0
2002/12/3 21:45,0.739,0,0.7511,0,0.6994,1.3732,0.2292,0.0413,0
2002/12/3 22:00,0.588,0,1.0102,0,0.1597,1.1392,0.1611,0.1585,0
2002/12/3 22:15,0.7413,0,1.1568,0,0.4997,1.2737,0.3249,0.4488,0
2002/12/3 22:30,0.5936,0,1.0515,0,0.5633,1.1352,0.1607,0.2328,0
2002/12/3 22:45,0.737,0,0.6597,0,0.3794,1.2717,0.3889,0.1938,0
2002/12/3 23:00,0.5841,0,0.8624,0,0.6733,1.1177,0.1593,0.1161,0
2002/12/3 23:15,0.5842,0,0.8578,0,0.1588,1.1644,0.2235,0.067,0
2002/12/3 23:30,0.6307,0,0.5132,0,0.4569,1.2139,0.3185,0.0076,0
2002/12/3 23:45,0.6708,0,0.5162,0,0.5383,1.1805,0.1584,0.0383,0
2002/12/4 0:00,0.4352,0,0.4575,0,0.4283,0.8135,0.3192,0.1999,0
2002/12/4 0:15,0.005,0,0.06,0,0.7217,0.1659,0.1587,0.5298,0
2002/12/4 0:30,0.0052,0,0,0,0.3701,0.1652,0.2393,0.5373,0
2002/12/4 0:45,0.0052,0,0,0,0.9171,0.1657,0.2462,0.5599,0
2002/12/4 1:00,0.005,0,0,0,0.9311,0.1642,0.232,0.5394,0
2002/12/4 1:15,0.0052,0,0,0,0.5011,0.1646,0.246,0.5625,0
2002/12/4 1:30,0.005,0,0,0,0.7527,0.1649,0.2314,0.5476,0
2002/12/4 1:45,0.0052,0,0.0003,0,0.3607,0.165,0.16,0.5266,0
2002/12/4 2:00,0.0052,0,0.0036,0,0.4471,0.1646,0.3237,0.5456,0
2002/12/4 2:15,0.0052,0,0.0032,0,0.4291,0.1646,0.158,0.5496,0
2002/12/4 2:30,0.005,0,0.0027,0,0.4702,0.1629,0.3185,0.5177,0
2002/12/4 2:45,0.005,0,0.0042,0,0.5653,0.1636,0.2318,0.5338,0
2002/12/4 3:00,0.005,0,0.0048,0,0.2873,0.1639,0.1621,0.516,0
2002/12/4 3:15,0.0052,0,0.0069,0,0.5409,0.1632,0.3155,0.5276,0
2002/12/4 3:30,0.005,0,0.013,0,0.2169,0.1644,0.1611,0.5158,0
2002/12/4 3:45,0.0052,0,0.0199,0,0.5795,0.164,0.3204,0.506,0
2002/12/4 4:00,0.005,0,0.0202,0,0.5233,0.1626,0.161,0.5201,0
2002/12/4 4:15,0.0049,0,0.0026,0,0.4031,0.1623,0.2419,0.4948,0
2002/12/4 4:30,0.005,0,0.0084,0,0.5937,0.1616,0.2608,0.5064,0
2002/12/4 4:45,0.005,0,0.0114,0,0.1081,0.1621,0.2412,0.5151,0
2002/12/4 5:00,0.005,0,0.019,0,0.6232,0.162,0.3344,0.5007,0
2002/12/4 5:15,0.005,0,0.0219,0,0.4352,0.163,0.175,0.506,0
2002/12/4 5:30,0.0049,0,0.0204,0,0.5082,0.1626,0.2448,0.5184,0
2002/12/4 5:45,0.005,0,0.0204,0,0.426,0.1621,0.2644,0.5059,0
2002/12/4 6:00,0.0049,0,0.5053,0,0.2092,0.4647,0.236,1.0904,0
2002/12/4 6:15,0.0049,0,0.8227,0.7972,0.7168,0.5213,0.3727,1.7565,0
2002/12/4 6:30,0.0049,0,0.4179,0,0.34,0.4307,0.2326,0.7825,0
2002/12/4 6:45,0.0052,0,0.0798,0,0.6201,0.1636,0.2647,0.6718,0
2002/12/4 7:00,0.005,0,0.1428,0,0.3457,0.2015,0.2356,0.6647,0
2002/12/4 7:15,0.0049,0,0.4615,0,0.2917,0.1627,0.32,0.6525,0
2002/12/4 7:30,0.005,0,0.4175,0,0.6163,0.1642,0.1624,0.6637,0
2002/12/4 7:45,0.005,0,0.6337,0.1607,0.3221,0.1794,0.3221,0.6242,0
2002/12/4 8:00,0.0052,0,0.5119,0.4056,0.681,0.4912,0.1624,0.4941,0
2002/12/4 8:15,0.005,0,0.5106,0,0.1483,0.5272,0.3266,0.4496,0
2002/12/4 8:30,0.0052,0,0.5109,0,0.5047,0.5573,0.2339,0.4501,0
2002/12/4 8:45,0.005,0,0.5819,0,0.5259,0.5649,0.1629,0.4573,0
2002/12/4 9:00,0.0049,0,1.0329,0,0.3947,0.5609,0.3259,0.4213,0
2002/12/4 9:15,0.0052,0,0.4342,0,0.5289,0.5586,0.1624,1.2156,0
2002/12/4 9:30,1.8822,0,0.8281,0,0.1244,2.539,0.3295,-1.3847,0
2002/12/4 9:45,1.0859,0,0.7248,0,0.6886,1.7047,0.3656,-0.5132,0
2002/12/4 10:00,1.0763,0,0.8787,0,0.4399,1.598,0.2321,-0.52,0
2002/12/4 10:15,0.8617,0,0.9596,0,0.5157,1.0727,0.3188,-0.343,0
2002/12/4 10:30,0.8313,0,0.8182,0,0.6009,1.011,0.2318,-0.216,0
2002/12/4 10:45,0.8136,0,0.8202,0,0.4103,0.9996,0.2511,-0.2144,0
2002/12/4 11:00,0.7992,0,0.8122,0,0.4985,0.9956,0.2268,-0.221,0
2002/12/4 11:15,0.7907,0,1.0148,0,0.2889,1.0081,0.2447,0.9448,0
2002/12/4 11:30,0.7844,0,1.0054,0,0.5867,0.9916,0.2246,-0.0694,0
2002/12/4 11:45,0.7979,0,0.9134,0,0.5076,0.9819,0.2344,-0.0412,0
2002/12/4 12:00,0.7762,0,0.812,0,0.4385,1.0035,0.2504,-0.0799,0
2002/12/4 12:15,0.6981,0,0.8103,0,0.9327,0.8722,0.2233,0.0707,0
2002/12/4 12:30,0.7112,0,0.8114,0,0.7883,0.8973,0.2511,0.0472,0
2002/12/4 12:45,0.7688,0,0.81,0,0.7507,0.9518,0.238,-0.0037,0
2002/12/4 13:00,0.758,0,0.8071,0,0.6402,0.9433,0.2483,-0.0085,0
2002/12/4 13:15,0.6257,0,0.8277,0.1918,0.4761,0.7996,0.2287,0.758,0
2002/12/4 13:30,0.7284,0,0.8052,0,0.6159,0.9095,0.3391,0.0334,0
2002/12/4 13:45,0.7187,0,0.8692,0,0.2411,0.9143,0.1623,-0.003,0
2002/12/4 14:00,0.616,0,1.2725,0,0.5702,0.7733,0.3279,0.0458,0
2002/12/4 14:15,0.6193,0,0.4781,0,0.541,0.811,0.163,-0.0667,0
2002/12/4 14:30,0.4107,0,0.2601,0,0.3483,0.5835,0.3276,0.1475,0
2002/12/4 14:45,0.005,0,0,0,0.5623,0.162,0.2317,0.4647,0
2002/12/4 15:00,0.0052,0,0,0,0.3012,0.1626,0.2301,0.4811,0
2002/12/4 15:15,0.005,0,0,0,0.5649,0.1616,0.2485,0.4474,0
2002/12/4 15:30,0.0052,0,0.0262,0,0.5504,0.1637,0.2379,0.4851,0
2002/12/4 15:45,0.0052,0,0.0291,0,0.3583,0.1624,0.2494,0.4559,0
2002/12/4 16:00,0.005,0,0.1027,0,0.6098,0.1642,0.2398,0.4746,0
2002/12/4 16:15,1.0836,0,0.5485,0,0.1682,1.472,0.3197,-0.5995,0
2002/12/4 16:30,0.8928,0,0.6316,0,0.5959,1.4651,0.2307,-0.4275,0
2002/12/4 16:45,0.7665,0,0.5808,0,0.5178,1.3185,0.3198,-0.2223,0
2002/12/4 17:00,0.7137,0,0.5688,0,0.3714,1.2336,0.164,-0.2336,0
2002/12/4 17:15,0.6098,0,0.5648,0,0.5633,1.157,0.2336,-0.1022,0
2002/12/4 17:30,0.5746,0,0.5617,0,0.1083,1.1017,0.3172,-0.0395,0
2002/12/4 17:45,0.5698,0,0.5597,0,0.6411,1.1228,0.1646,-0.1041,0
2002/12/4 18:00,0.5665,0,0.6768,0,0.4628,1.131,0.3216,-0.0639,0
2002/12/4 18:15,0.6428,0,1.1326,0,0.4376,1.207,0.1649,0.2026,0
2002/12/4 18:30,0.6641,0,1.114,0,0.4661,1.2113,0.3488,0.2448,0
2002/12/4 18:45,0.582,0,1.7304,0,0.1525,1.1472,0.2328,0.3128,0
2002/12/4 19:00,0.5773,0,1.2205,0.5305,0.7157,1.1308,0.2576,0.8192,0
2002/12/4 19:15,0.5748,0,0.9161,0,0.4038,1.1297,0.2327,0.204,0
2002/12/4 19:30,0.6898,0,0.9107,0,0.4938,1.2377,0.2547,0.0684,0
2002/12/4 19:45,0.615,0,0.9122,0,0.4245,1.182,0.2324,0.2022,0
2002/12/4 20:00,0.5748,0,0.6538,0,0.1817,1.6461,0.3207,0.5759,0
2002/12/4 20:15,0.5707,0,0.6326,0,0.7433,1.7294,0.1657,0.5681,0
2002/12/4 20:30,0.5694,0,0.6326,0,0.3928,1.744,0.3231,0.5033,0
2002/12/4 20:45,0.5668,0,0.6427,0,0.5406,1.6059,0.1634,0.5518,0
2002/12/4 21:00,0.5643,0,1.4319,0,0.3875,1.1616,0.2336,0.3685,0
2002/12/4 21:15,0.5646,0,1.0342,0,0.2471,1.1356,0.3223,0.2474,0
2002/12/4 21:30,0.5698,0,0.5584,0,0.7389,1.1238,0.2281,0.3218,0
2002/12/4 21:45,0.5678,0,0.6044,0,0.372,1.1244,0.3208,0.301,0